Regional Weather Roundup
Issued by NWS

Home | Current Version | Previous Version | Graphics & Text | Print | Product List | Glossary On
Versions: 1 2 3 4 5 6 7 8 9 10 11 12 13 14 15 16 17 18 19 20 21 22 23 24 25 26 27 28 29 30 31 32 33 34 35 36 37 38 39 40 41 42 43 44 45 46 47 48 49 50
000
ASUS43 KLOT 280103
RWRIL

ILLINOIS REGIONAL WEATHER ROUNDUP
NATIONAL WEATHER SERVICE CHICAGO/ROMEOVILLE IL
800 PM CDT SAT AUG 27 2016

NOTE: "FAIR" INDICATES FEW OR NO CLOUDS BELOW 12,000 FEET WITH NO
SIGNIFICANT WEATHER AND/OR OBSTRUCTIONS TO VISIBILITY.

* THESE STATIONS ARE NOT UNDER NWS QUALITY CONTROL. THEY ALSO MAY NOT
  REPORT WEATHER SUCH AS PRECIPITATION OR FOG.

ILZ001-002-007-009-015-016-024-280200-
NORTHWEST ILLINOIS

CITY           SKY/WX    TMP DP  RH WIND       PRES   REMARKS
MOLINE         RAIN      79  73  82 CALM      30.02R HX  82
STERLING*      MOCLDY    76  73  91 CALM      30.04R
SAVANNA*       CLEAR     76  69  78 CALM      30.03R
$$

ILZ003-004-008-010-011-017-018-280200-
NORTH CENTRAL ILLINOIS

CITY           SKY/WX    TMP DP  RH WIND       PRES   REMARKS
ROCKFORD       MOCLDY    77  69  76 NW3       30.05R
FREEPORT*      PTCLDY    73  68  82 CALM      30.06R
ROCHELLE*      MOCLDY    75  73  95 CALM      30.05R
$$

ILZ005-006-012>014-019>023-280200-
NORTHEAST ILLINOIS

CITY           SKY/WX    TMP DP  RH WIND       PRES   REMARKS
CHICAGO-OHARE  MOCLDY    79  70  74 SW6       30.03R HX  82
CHICAGO-MIDWAY MOCLDY    82  70  66 SW7       30.03R HX  86
AURORA         CLOUDY    78  71  79 S5        30.05R HX  80
LANSING*       CLEAR     76  73  92 S5        30.05R
JOLIET*        CLOUDY    78  75  91 CALM      30.04R
WAUKEGAN       CLOUDY    75  71  87 CALM      30.03R
DUPAGE AIRPORT MOCLDY    78  70  76 SW7       30.04R HX  80
KANKAKEE*      CLEAR     78  74  86 S3        30.06R HX  81
WHEELING       CLOUDY    80  70  71 SW3       30.04R HX  83
MORRIS*        CLOUDY    77  73  89 CALM      30.04R
ROMEOVILLE*    CLOUDY    75  74  97 CALM      30.05R
NORTHERLY ISL    N/A     82  68  62 SW5         N/A  HX  85
$$

LMZ740>746-280200-
SOUTHERN LAKE MICHIGAN

STATION/POSITION SKY/WX   TEMP    WIND        PRES    VSBY  WAVE
                          AIR SEA DIR/SP/G                  HT/PER
                          (F)     (DEG/KT/KT) (MB)    (MI)  (FT/S)
SOUTHERN BUOY              75 75  140/  8/ 10 1016.0          1/ 4
WILMETTE HARBOR            75 70  200/  2/  2   N/A           2/ 4
HARRISON CRIB              84     220/ 11/ 12   N/A
BURNHAM HARBOR             82     210/  5/  8   N/A
CALUMET HARBOR             82     200/  7/ 10 1016.6R
BURNS HARBOR               82     190/  8/ 18 1017.3R
MICHIGAN CITY              81     170/  8/  9   N/A
MICHIGAN CITY 6N           80 76  180/  6/  8   N/A           1
ST. JOSEPH                 79 77  170/  6/  8 1016.5R         1
$$

ILZ025>027-034>036-040-047-049-050-058-095>099-280200-
WEST-CENTRAL ILLINOIS

CITY           SKY/WX    TMP DP  RH WIND       PRES   REMARKS
QUINCY         PTCLDY    82  74  76 S3        30.02S HX  88
GALESBURG*     PTCLDY    78  74  86 CALM      30.04R HX  81
MACOMB*        PTCLDY    78  75  89 CALM      30.05R HX  81
JACKSONVILLE*  CLOUDY    79  72  79 S8        30.04R HX  81
PITTSFIELD*    PTCLDY    80  75  85 CALM      30.05R HX  85
$$

ILZ028>032-037-038-041>044-048-051>054-059>061-280200-
CENTRAL ILLINOIS

CITY           SKY/WX    TMP DP  RH WIND       PRES   REMARKS
PONTIAC        MOCLDY    77  76  99 CALM      30.06R
BLOOMINGTON    CLOUDY    78  73  84 S9        30.08R HX  81
DECATUR        CLOUDY    77  66  68 N8G20     30.09R THUNDER
PEORIA         CLOUDY    78  77  96 CALM      30.04R HX  81
LACON*         CLOUDY    77  74  90 CALM      30.03R
LINCOLN*       CLOUDY    79  74  86 SE5       30.05R HX  82
SPRINGFIELD    CLOUDY    80  75  84 S7        30.05R HX  85
TAYLORVILLE    PTCLDY    78  74  88 CALM      30.07R HX  80
$$

ILZ033-039-045-046-055>057-062-063-280200-
EAST-CENTRAL ILLINOIS

CITY           SKY/WX    TMP DP  RH WIND       PRES   REMARKS
CHAMPAIGN      CLOUDY    77  71  82 SW10      30.09R
RANTOUL*       LGT RAIN  80  75  86 S8        30.08R HX  84
MATTOON        CLEAR     77  72  84 SE5       30.07R
PARIS*         CLEAR     75  74  96 CALM      30.10R
$$

ILZ079-100>102-280200-
SOUTHWEST ILLINOIS

CITY           SKY/WX    TMP DP  RH WIND       PRES   REMARKS
BELLEVILLE     CLEAR     81  74  78 E3        30.04R HX  87
CAHOKIA*       PTCLDY    80  73  79 SE6       30.04R HX  84
SPARTA*        CLEAR     78  74  88 CALM      30.05R
$$

ILZ064>066-069>071-074>076-080>082-084>086-088>090-092>094-280200-
SOUTH-CENTRAL ILLINOIS

CITY           SKY/WX    TMP DP  RH WIND       PRES   REMARKS
CARBONDALE     CLEAR     77  74  90 CALM      30.04R
EFFINGHAM*     CLEAR     77  76  99 CALM      30.09R
MARION         CLEAR     81  75  83 SE3       30.05R HX  86
MT. VERNON     CLEAR     77  70  78 CALM      30.06R
CENTRALIA*     CLEAR     77  76  95 CALM      30.05R
SALEM*         CLEAR     77  74  88 CALM      30.07R
METROPOLIS*    CLEAR     80  77  92 CALM      30.04S HX  85
$$

ILZ067-068-072-073-078-083-087-091-280200-
SOUTHEAST ILLINOIS

CITY           SKY/WX    TMP DP  RH WIND       PRES   REMARKS
LAWRENCEVILLE  CLOUDY    82  76  81 CALM      30.07R HX  89
FLORA*         CLOUDY    80  75  85 CALM      30.07R HX  85
FAIRFIELD*     CLEAR     78  76  92 CALM      30.05R HX  81
HARRISBURG*    CLOUDY    80  77  90 E3        30.05R HX  88
ROBINSON*      PTCLDY    76  74  96 CALM      30.09R
CARMI*         CLOUDY    79  77  94 CALM      30.05S HX  84
$$

ABBREVIATIONS USED IN REMARKS
   TC - TEMPERATURE IN CELSIUS
  WCI - WIND CHILL INDEX
   HX - HEAT INDEX
  VSB - VISIBILITY
$$





USA.gov is the U.S. government's official web portal to all federal, state and local government web resources and services.